Weather History for Moriarty, NM

Change the Weather History Date:

Monday, April 15, 2013

  Actual Average (KABQ) Record (KABQ)
Temperature  
Mean Temperature 56 °F 56 °F  
Max Temperature 77 °F 69 °F 86 °F (1937)
Min Temperature 36 °F 43 °F 24 °F (1933)
Degree Days  
Heating Degree Days 8 9  
Month to date heating degree days 171  
Since 1 July heating degree days 3998  
Cooling Degree Days 0 0  
Month to date cooling degree days 0  
Year to date cooling degree days 0  
Growing Degree Days 6 (Base 50)    
Moisture  
Dew Point 17 °F    
Average Humidity 21    
Maximum Humidity 48    
Minimum Humidity 8    
Precipitation  
Precipitation 0.00 in 0.02 in 0.35 in (1971)
Month to date precipitation 0.32  
Year to date precipitation 1.75  
Snow  
Snow 0.00 in - - ()
Month to date snowfall  
Since 1 July snowfall  
Snow Depth -    
Sea Level Pressure  
Sea Level Pressure 29.78 in    
Wind  
Wind Speed 10 mph (WSW)    
Max Wind Speed 32 mph    
Max Gust Speed 43 mph    
Visibility 10 miles    
Events      
T = Trace of Precipitation, MM = Missing Value Source: NWS Daily Summary

Daily Weather History Graph

Daily Weather History Graph

Search for Another Location

Airport:

Trip Planner

Search our weather history database for the weather conditions in past years. The results will help you decide how hot, cold, wet, or windy it might be!

Date:

Astronomy

Apr. 15, 2013 Rise Set
Actual Time 6:31 AM MDT 7:36 PM MDT
Civil Twilight 6:05 AM MDT 8:02 PM MDT
Nautical Twilight 5:34 AM MDT 8:33 PM MDT
Astronomical Twilight 5:02 AM MDT 9:06 PM MDT
Moon 10:06 AM MDT (4/15) No Moon Set
Length of Visible Light 13h 57m
Length of Day
13h 05m
Waxing Crescent, 25% of the Moon is Illuminated
Apr 15
Waxing Crescent
Apr 18
First Quarter
Apr 25
Full
May 2
Last Quarter
May 9
New

Hourly Weather History & Observations

Time (MDT) Temp. Windchill Dew Point Humidity Pressure Visibility Wind Dir Wind Speed Gust Speed Precip Events Conditions
12:15 AM 55.8 °F - 21.0 °F 26% 29.78 in 10.0 mi West 6.9 mph - N/A   Clear
12:35 AM 56.3 °F - 21.4 °F 26% 29.78 in 10.0 mi West 8.1 mph - N/A   Clear
12:55 AM 55.4 °F - 21.7 °F 27% 29.78 in 10.0 mi WNW 8.1 mph - N/A   Clear
1:15 AM 54.9 °F - 21.4 °F 27% 29.78 in 10.0 mi NW 5.8 mph - N/A   Clear
1:35 AM 54.3 °F - 21.2 °F 28% 29.78 in 10.0 mi NW 6.9 mph - N/A   Clear
1:55 AM 53.2 °F - 20.8 °F 28% 29.79 in 10.0 mi West 5.8 mph - N/A   Clear
2:15 AM 53.6 °F - 20.8 °F 28% 29.79 in 10.0 mi Calm Calm - N/A   Clear
2:35 AM 52.2 °F - 20.3 °F 29% 29.79 in 10.0 mi SW 4.6 mph - N/A   Clear
2:55 AM 52.7 °F - 20.3 °F 28% 29.80 in 10.0 mi West 3.5 mph - N/A   Clear
3:15 AM 51.3 °F - 19.8 °F 29% 29.80 in 10.0 mi West 4.6 mph - N/A   Clear
3:35 AM 48.2 °F - 19.6 °F 32% 29.79 in 10.0 mi West 8.1 mph - N/A   Clear
3:55 AM 50.2 °F - 20.3 °F 31% 29.79 in 10.0 mi West 9.2 mph - N/A   Clear
4:15 AM 46.6 °F - 19.4 °F 34% 29.80 in 10.0 mi SSW 6.9 mph - N/A   Clear
4:35 AM 40.5 °F 36.5 °F 19.4 °F 43% 29.80 in 10.0 mi SSW 5.8 mph - N/A   Clear
4:55 AM 40.6 °F 37.5 °F 19.4 °F 43% 29.80 in 10.0 mi SSW 4.6 mph - N/A   Clear
5:15 AM 42.6 °F 39.9 °F 19.8 °F 40% 29.80 in 10.0 mi SW 4.6 mph - N/A   Clear
5:35 AM 38.7 °F - 18.7 °F 45% 29.80 in 10.0 mi Calm Calm - N/A   Clear
5:55 AM 36.1 °F - 18.3 °F 48% 29.80 in 10.0 mi Calm Calm - N/A   Clear
6:15 AM 40.1 °F - 18.7 °F 42% 29.82 in 10.0 mi Calm Calm - N/A   Clear
6:35 AM 39.7 °F - 19.4 °F 44% 29.82 in 10.0 mi Calm Calm - N/A   Clear
6:55 AM 37.8 °F 33.3 °F 17.2 °F 43% 29.83 in 10.0 mi NNW 5.8 mph - N/A   Clear
7:15 AM 36.7 °F 34.1 °F 18.1 °F 47% 29.83 in 10.0 mi ENE 3.5 mph - N/A   Clear
7:35 AM 45.5 °F - 19.9 °F 36% 29.84 in 10.0 mi Calm Calm - N/A   Clear
7:55 AM 51.4 °F - 20.8 °F 30% 29.85 in 10.0 mi South 3.5 mph - N/A   Clear
8:15 AM 54.5 °F - 21.2 °F 27% 29.84 in 10.0 mi Calm Calm - N/A   Clear
8:35 AM 57.0 °F - 21.9 °F 26% 29.84 in 10.0 mi SW 4.6 mph - N/A   Clear
8:55 AM 59.4 °F - 22.3 °F 24% 29.84 in 10.0 mi WSW 11.5 mph - N/A   Clear
9:15 AM 61.3 °F - 23.0 °F 23% 29.84 in 10.0 mi SSW 13.8 mph 26.5 mph N/A   Clear
9:35 AM 61.9 °F - 22.8 °F 22% 29.84 in 10.0 mi SW 8.1 mph - N/A   Clear
9:55 AM 61.7 °F - 22.1 °F 22% 29.83 in 10.0 mi SSW 11.5 mph 19.6 mph N/A   Clear
10:15 AM 63.5 °F - 22.3 °F 21% 29.83 in 10.0 mi SSW 17.3 mph 23.0 mph N/A   Clear
10:35 AM 64.4 °F - 22.1 °F 20% 29.83 in 10.0 mi SSW 17.3 mph - N/A   Clear
10:55 AM 65.8 °F - 20.8 °F 18% 29.82 in 10.0 mi WSW 12.7 mph 21.9 mph N/A   Clear
11:15 AM 67.1 °F - 16.9 °F 15% 29.82 in 10.0 mi West 17.3 mph 28.8 mph N/A   Clear
11:35 AM 68.2 °F - 16.9 °F 14% 29.81 in 10.0 mi WSW 23.0 mph 28.8 mph N/A   Clear
11:55 AM 69.1 °F - 16.3 °F 13% 29.81 in 10.0 mi WSW 25.3 mph 32.2 mph N/A   Clear
12:15 PM 68.9 °F - 16.5 °F 13% 29.81 in 10.0 mi WSW 18.4 mph 33.4 mph N/A   Clear
12:35 PM 70.2 °F - 16.7 °F 13% 29.80 in 10.0 mi WSW 19.6 mph 29.9 mph N/A   Clear
12:55 PM 70.5 °F - 16.5 °F 13% 29.79 in 10.0 mi West 24.2 mph 32.2 mph N/A   Clear
1:15 PM 71.1 °F - 17.6 °F 13% 29.78 in 10.0 mi West 17.3 mph 26.5 mph N/A   Clear
1:35 PM 72.0 °F - 16.9 °F 12% 29.76 in 10.0 mi SW 16.1 mph 27.6 mph N/A   Clear
1:55 PM 72.3 °F - 18.3 °F 13% 29.75 in 10.0 mi SW 19.6 mph 29.9 mph N/A   Clear
2:15 PM 73.9 °F - 17.6 °F 12% 29.75 in 10.0 mi West 20.7 mph 38.0 mph N/A   Clear
2:35 PM 74.8 °F - 17.4 °F 11% 29.74 in 10.0 mi WSW 24.2 mph 35.7 mph N/A   Clear
2:55 PM 75.0 °F - 16.7 °F 11% 29.73 in 10.0 mi WSW 23.0 mph 32.2 mph N/A   Clear
3:15 PM 75.6 °F - 16.2 °F 11% 29.72 in 10.0 mi WSW 18.4 mph 36.8 mph N/A   Clear
3:35 PM 77.4 °F - 15.3 °F 10% 29.71 in 10.0 mi SW 29.9 mph 36.8 mph N/A   Clear
3:55 PM 76.5 °F - 14.5 °F 10% 29.70 in 10.0 mi SW 32.2 mph 38.0 mph N/A   Clear
4:15 PM 76.3 °F - 14.7 °F 10% 29.70 in 10.0 mi WSW 17.3 mph 34.5 mph N/A   Clear
4:35 PM 77.0 °F - 14.2 °F 9% 29.70 in 10.0 mi SW 32.2 mph 40.3 mph N/A   Clear
4:55 PM 77.2 °F - 13.6 °F 9% 29.69 in 10.0 mi SW 25.3 mph 42.6 mph N/A   Clear
5:15 PM 76.6 °F - 12.6 °F 9% 29.68 in 10.0 mi SW 29.9 mph 38.0 mph N/A   Clear
5:35 PM 76.5 °F - 11.1 °F 8% 29.69 in 10.0 mi SW 29.9 mph 39.1 mph N/A   Clear
5:55 PM 76.1 °F - 9.0 °F 8% 29.69 in 10.0 mi SW 32.2 mph 40.3 mph N/A   Clear
6:15 PM 75.2 °F - 10.2 °F 8% 29.70 in 10.0 mi WSW 27.6 mph 35.7 mph N/A   Clear
6:35 PM 73.9 °F - 10.4 °F 9% 29.70 in 10.0 mi WSW 27.6 mph - N/A   Clear
6:55 PM 72.0 °F - 11.7 °F 10% 29.71 in 10.0 mi SW 26.5 mph 34.5 mph N/A   Clear
7:15 PM 69.8 °F - 14.7 °F 12% 29.72 in 10.0 mi SW 20.7 mph 28.8 mph N/A   Clear
7:35 PM 68.5 °F - 14.0 °F 12% 29.73 in 10.0 mi SW 25.3 mph 34.5 mph N/A   Clear
7:55 PM 66.2 °F - 14.2 °F 13% 29.75 in 10.0 mi SW 19.6 mph - N/A   Clear
8:15 PM 64.4 °F - 14.5 °F 14% 29.76 in 10.0 mi SW 18.4 mph - N/A   Clear
8:35 PM 63.9 °F - 14.5 °F 15% 29.78 in 10.0 mi SW 15.0 mph - N/A   Clear
8:55 PM 61.2 °F - 13.8 °F 16% 29.79 in 10.0 mi WSW 9.2 mph - N/A   Clear
9:15 PM 61.0 °F - 13.6 °F 16% 29.80 in 10.0 mi WSW 10.4 mph - N/A   Clear
9:35 PM 59.4 °F - 13.1 °F 16% 29.81 in 10.0 mi WSW 8.1 mph - N/A   Clear
9:55 PM 57.6 °F - 12.7 °F 17% 29.82 in 10.0 mi West 5.8 mph - N/A   Clear
10:15 PM 57.6 °F - 12.4 °F 17% 29.83 in 10.0 mi Calm Calm - N/A   Clear
10:35 PM 58.3 °F - 12.2 °F 16% 29.83 in 10.0 mi NW 3.5 mph - N/A   Clear
10:55 PM 58.5 °F - 12.0 °F 16% 29.84 in 10.0 mi West 3.5 mph - N/A   Clear
11:15 PM 57.2 °F - 11.5 °F 16% 29.84 in 10.0 mi Calm Calm - N/A   Clear
11:35 PM 56.8 °F - 11.3 °F 16% 29.84 in 10.0 mi ESE 3.5 mph - N/A   Clear
11:55 PM 56.8 °F - 10.9 °F 16% 29.84 in 10.0 mi SE 4.6 mph - N/A   Clear